Regional Weather Roundup
Issued by NWS

Home | Current Version | Previous Version | Graphics & Text | Print | Product List | Glossary On
Versions: 1 2 3 4 5 6 7 8 9 10 11 12 13 14 15 16 17 18 19 20 21 22 23 24 25 26 27 28 29 30 31 32 33 34 35 36 37 38 39 40 41 42 43 44 45 46 47 48 49 50
000
ASUS43 KMPX 151410
RWRMN
WEATHER ROUNDUP FOR MINNESOTA
NATIONAL WEATHER SERVICE TWIN CITIES/CHANHASSEN MN
900 AM CDT TUE AUG 15 2017


NOTE: "FAIR" INDICATES FEW OR NO CLOUDS BELOW 12,000 FEET WITH NO
SIGNIFICANT WEATHER AND/OR OBSTRUCTIONS TO VISIBILITY. N/A MEANS
CURRENT SKY AND/OR WEATHER CONDITIONS ARE NOT AVAILABLE.

MNZ060>063-068>070-151500-
   Twin Cities Metro

CITY           SKY/WX    TMP DP  RH WIND       PRES   REMARKS
TWIN CITIES    CLOUDY    62  57  83 SE9       29.98S
ST PAUL        CLOUDY    60  59  96 S6        29.98S
CRYSTAL        MOSUNNY   65  58  78 SE5       29.96R
BLAINE         PTSUNNY   63  63 100 E7        29.97S
LAKEVILLE      CLOUDY    57  57 100 E6        29.97F
EDEN PRAIRIE   CLOUDY    65  60  84 E5        29.96F
SOUTH ST PAUL  CLOUDY    59  57  92 SE6       29.98S
LAKE ELMO      CLOUDY    57  57 100 E5        29.99F
$$
MNZ001>005-007-008-013>017-022>024-027-028-151500-
   Northwest Minnesota

CITY           SKY/WX    TMP DP  RH WIND       PRES   REMARKS
BEMIDJI        MOSUNNY   65  59  82 CALM      29.98R
HALLOCK        CLOUDY    64  61  88 S6        29.92R
ROSEAU         CLOUDY    66  61  82 CALM      29.93S
WARROAD        CLOUDY    64  61  88 CALM      29.95R
THIEF RVR FALL MOSUNNY   67  60  78 S6        29.96R
CROOKSTON      MOSUNNY   64  61  88 S3        29.95R
FOSSTON        MOSUNNY   66  59  77 S3        29.97R
DETROIT LAKES  MOSUNNY   64  61  88 S9        29.98S
MOORHEAD       MOSUNNY   66  63  88 S8        29.95S
PARK RAPIDS    SUNNY     64  60  87 SE6       29.97F
MAHNOMEN       FAIR      65  61  86 S3        29.96S
$$
MNZ006-009>011-018-025>026-151500-
   North Central Minnesota

CITY           SKY/WX    TMP DP  RH WIND       PRES   REMARKS
BAUDETTE       CLOUDY    64  58  80 SW5       29.95R
FLAG ISLAND    SUNNY     70  54  56 CALM      29.93S
INTL FALLS     SUNNY     64  59  83 SE5       29.97R
WASKISH        PTSUNNY   66  63  88 CALM      29.96S
BIG FORK       SUNNY     63  61  94 CALM      29.98R
LONGVILLE      SUNNY     63  63 100 CALM      29.98R
GRAND RAPIDS   CLOUDY    65  60  84 W3        30.01R
CRANE LAKE     SUNNY     59  57  94 CALM      29.99R
ORR            SUNNY     61  57  88 CALM      29.96R
COOK             N/A     57  57 100 CALM      29.98S
WALKER         FAIR      65  60  85 CALM      29.98S
$$
MNZ012-019>021-037-151500-
   Northeast Minnesota

CITY           SKY/WX    TMP DP  RH WIND       PRES   REMARKS
DULUTH         MOSUNNY   63  60  90 SE3       30.00R
ELY            SUNNY     59  57  94 SE5       29.99R
HIBBING        MOSUNNY   57  57 100 S3        29.99R
EVELETH        CLOUDY    58  56  93 CALM      30.00R FOG
DULUTH HARBOR  PTSUNNY   63  61  94 CALM      30.00R
TWO HARBORS    SUNNY     68  61  77 E6        29.98R
SILVER BAY     SUNNY     64  57  77 NE6       29.98R
GRAND MARAIS     N/A     63  58  83 VRB3      29.98R
G MARAIS ARPRT SUNNY     61  52  72 NE3       30.01R
$$
MNZ029>031-032-039>041-046>048-054>057-064-151500-
   West Central Minnesota

CITY           SKY/WX    TMP DP  RH WIND       PRES   REMARKS
FERGUS FALLS   CLOUDY    66  64  94 S9        29.96R
WHEATON        CLOUDY    64  61  88 SE7       29.96F
MORRIS         PTSUNNY   66  63  88 SE8       29.95S
ALEXANDRIA     SUNNY     63  59  87 SE8       29.99R
ELBOW LAKE     FAIR      65  62  92 SE10      29.97S
WADENA         CLOUDY    61  61 100 CALM      29.97S
GLENWOOD       SUNNY     63  63 100 SE6       29.98S
APPLETON       CLOUDY    64  61  88 SE5       29.95R
BENSON         CLOUDY    64  61  88 SE6       29.97S
ORTONVILLE     CLOUDY    61  59  94 MISG      29.94F FOG
MADISON        PTSUNNY   63  63 100 CALM      29.94F FOG
WILLMAR        FAIR      63  63 100 SE8       29.97S
$$
MNZ033>034-036-042>043-049>051-058-059-151500-
   Central Minnesota

CITY           SKY/WX    TMP DP  RH WIND       PRES   REMARKS
ST CLOUD       CLOUDY    60  60 100 SE5       29.98S
SAUK CENTRE    PTSUNNY   60  60 100 SE5       29.98S
PAYNESVILLE    MOSUNNY   61  61  98 SE6       29.97F
AITKIN         SUNNY     64  61  88 CALM      29.97F
BRAINERD       SUNNY     64  60  87 CALM      29.98S
STAPLES        CLOUDY    61  61 100 CALM      29.98S
LONG PRAIRIE   FAIR      61  61 100 E5        29.98S
LITTLE FALLS   SUNNY     61  59  94 CALM      29.98S
LITCHFIELD     CLOUDY    64  64 100 SE7       29.97S
BUFFALO        CLOUDY    64  59  85 E5        29.98F
MAPLE LAKE     CLOUDY    64  63  98 E3        29.98F
HUTCHINSON     CLOUDY    62  62 100 E6        29.97F
$$
MNZ037-044-045-052-053-151500-
   East Central Minnesota

CITY           SKY/WX    TMP DP  RH WIND       PRES   REMARKS
PRINCETON      CLOUDY    63  61  94 CALM      29.98S
MORA           SUNNY     61  61 100 CALM      30.00F
CAMBRIDGE      CLOUDY    63  61  94 CALM      29.96F FOG
RUSH CITY      FOG       59  58  97 CALM      30.00S VSB 1/4
MOOSE LAKE     SUNNY     57  55  94 CALM      29.99S
HINCKLEY         N/A    N/A N/A N/A MISG        N/A
CLOQUET        MOSUNNY   63  57  82 CALM      30.00R
MCGREGOR       SUNNY     61  59  94 CALM      30.00S
$$
MNZ071>073-080-081-089-090-097-098-151500-
   Southwest Minnesota

CITY           SKY/WX    TMP DP  RH WIND       PRES   REMARKS
MONTEVIDEO     PTSUNNY   63  63 100 S6        29.95R
GRANITE FALLS  CLOUDY    63  62  97 E6        29.95F FOG
CANBY          CLOUDY    62  61  97 CALM      29.95S FOG
MARSHALL       RAIN      60  59  96 SE7       29.95R FOG
REDWOOD FALLS  CLOUDY    62  60  93 SE7       29.94F FOG
OLIVIA         CLOUDY    61  59  94 E6        29.95S FOG
PIPESTONE      CLOUDY    63  61  94 SE8       29.94R FOG
WINDOM         CLOUDY    61  61 100 CALM      29.96R FOG
WORTHINGTON    FOG       60  59  96 E7        29.97R VSB 1
JACKSON        FOG       61  61 100 CALM      29.96R VSB 1/2
TRACY          CLOUDY    61  61 100 SE5       29.96R FOG
SLAYTON          N/A    N/A N/A N/A SE3       29.96R
$$
MNZ065>067-074>077-082>085-091>093-151500-
   South Central Minnesota

CITY           SKY/WX    TMP DP  RH WIND       PRES   REMARKS
MANKATO        CLOUDY    62  59  90 E6        29.97R
NEW ULM        CLOUDY    63  61  94 E7        29.95S FOG
ST JAMES       FOG       61  61 100 E3        29.97R VSB 1/4
FAIRMONT       FOG       61  61 100 E5        29.96R VSB 1
GLENCOE        PTSUNNY   62  62 100 E6        29.96F
FARIBAULT      MOSUNNY   61  59  94 E6        29.96F
OWATONNA       CLOUDY    61  59  94 E7        29.96F
WASECA         CLOUDY    59  59 100 E6        29.98R
ALBERT LEA     CLOUDY    63  61  94 E6        29.97R
$$
MNZ078>079-086>088-094>096-151500-
   Southeast Minnesota

CITY           SKY/WX    TMP DP  RH WIND       PRES   REMARKS
ROCHESTER      CLOUDY    61  58  90 E9        29.97F
RED WING       CLOUDY    63  55  77 E6        29.96F
STANTON        CLOUDY    60  59  96 E5        29.96F
DODGE CENTER   CLOUDY    59  57  94 E7        29.96F
WINONA         CLOUDY    61  55  82 E6        29.98R
AUSTIN         CLOUDY    59  57  94 E8        29.96S
PRESTON        CLOUDY    60  56  85 NE7       29.98S
$$
ABBREVIATIONS USED IN REMARKS
   TC - TEMPERATURES IN CELSIUS
  WCI - WIND CHILL INDEX
   HX - HEAT INDEX
  VSB - VISIBILITY
$$




USA.gov is the U.S. government's official web portal to all federal, state and local government web resources and services.